Theta_e
324 322 322 322 322 324 326 323 326 332 334 328 324 328 331 326 328 337 343 350 359 354 347 351 353 351 352 351 350 351 349 348 349 349 350 349 348 350 348 343 340 340 340 340 341 342 342 343 342 342 343 344 344 345 345 346 345 343 343 342 341 340 340
324 321 321 324 322 324 326 321 325 330 326 328 328 325 328 327 321 328 342 351 354 351 346 350 355 353 353 354 351 351 351 350 350 350 350 348 347 347 349 347 343 341 341 340 341 342 342 342 342 343 343 344 345 345 345 346 347 346 344 343 342 342 341
324 323 323 326 325 324 324 321 323 324 321 327 331 323 324 325 324 332 343 345 346 348 349 352 353 353 353 353 352 352 352 351 351 351 350 349 347 345 348 349 347 344 341 341 341 341 342 342 343 343 344 345 345 345 346 347 347 347 346 344 343 343 342
323 325 325 325 325 325 325 323 324 324 323 325 325 324 325 324 325 334 338 340 345 347 350 352 352 352 354 353 354 354 352 351 352 351 350 349 347 346 346 348 350 348 344 342 342 342 343 343 343 344 344 345 345 345 346 347 348 348 348 347 345 344 343
324 324 324 323 325 326 326 324 323 324 325 325 321 320 323 323 329 339 339 340 345 347 349 350 350 352 352 352 355 354 351 351 352 352 351 349 348 347 346 346 349 350 348 345 343 343 343 343 344 345 345 346 346 346 346 347 348 349 349 349 347 345 344
325 324 324 323 325 327 325 324 324 324 324 323 319 319 323 322 326 337 340 342 345 346 346 346 347 349 348 349 352 352 351 352 352 352 352 350 349 347 346 345 346 349 351 348 345 344 344 344 344 345 345 346 346 346 346 348 349 349 349 350 349 346 344
324 324 325 324 324 326 326 324 325 326 326 323 320 322 326 322 322 334 345 349 348 344 342 344 345 347 347 347 347 348 348 350 350 350 351 351 350 349 349 348 347 348 352 351 347 345 345 345 345 345 346 346 346 347 347 348 349 349 349 350 350 348 344
332 325 325 325 323 326 328 327 326 329 332 329 323 325 333 336 335 338 345 349 347 343 342 344 345 346 347 346 346 346 346 347 347 347 349 350 351 351 350 350 350 351 353 353 350 348 347 346 345 345 345 346 347 347 347 348 349 349 350 350 351 348 344
341 332 330 328 325 329 332 329 328 331 336 335 329 330 341 346 341 339 344 348 347 344 342 343 345 346 346 346 345 345 345 346 346 345 347 349 349 350 350 351 352 352 352 351 349 348 347 348 348 349 348 348 348 348 348 348 349 349 349 350 351 350 345
338 336 336 330 326 333 334 331 331 333 336 338 334 336 348 350 343 342 347 348 346 344 342 343 344 344 345 347 346 344 344 344 344 344 346 348 348 348 349 350 351 350 350 350 350 350 348 347 348 349 351 352 352 352 353 353 352 352 351 350 350 350 347
339 338 339 333 330 333 331 331 335 335 336 338 338 341 347 346 344 345 345 345 346 346 344 344 343 342 344 346 345 345 343 342 343 344 345 347 347 347 348 349 349 348 348 348 348 349 349 347 347 348 350 352 353 354 353 352 353 353 353 353 352 351 349
336 338 338 333 331 331 328 331 336 335 337 340 341 344 341 340 344 347 344 344 346 346 346 345 344 343 343 344 345 345 344 343 343 344 344 345 345 346 347 349 349 349 348 348 348 348 349 348 348 348 349 350 352 354 354 352 349 350 350 351 352 353 351
329 330 329 329 330 330 330 334 335 334 337 339 341 342 341 341 346 346 343 345 346 346 345 344 342 342 342 343 345 345 344 344 344 344 344 344 344 345 347 347 348 348 348 348 348 348 349 349 349 348 348 349 349 351 354 354 352 349 347 348 351 351 350
328 325 323 328 331 332 335 337 336 334 335 337 338 339 340 341 343 343 341 343 345 344 342 341 340 341 342 344 345 344 344 344 344 344 344 343 344 345 345 346 346 347 348 348 348 349 349 349 348 348 348 348 348 349 352 354 354 353 349 348 350 349 347
329 327 324 328 331 332 334 336 335 333 334 338 339 338 340 341 341 341 341 342 343 341 339 338 339 340 342 344 344 344 343 343 343 344 343 343 344 344 344 345 346 346 347 347 347 348 349 348 348 348 348 349 350 350 350 353 355 354 352 349 349 349 347
326 325 326 329 329 330 332 334 333 333 334 337 338 338 340 341 340 342 344 343 343 340 338 337 338 339 340 340 341 343 342 342 343 342 343 343 343 343 344 345 345 345 346 346 347 347 348 349 348 348 349 349 350 351 351 352 353 354 354 351 349 348 347
327 328 327 328 329 330 334 335 331 331 334 336 337 339 341 341 342 345 345 342 340 339 338 337 337 338 337 337 337 340 341 342 341 341 342 342 342 343 344 344 345 346 346 346 347 347 347 348 349 348 349 349 349 350 351 352 352 354 355 353 351 351 350
329 333 330 331 335 334 333 332 330 331 334 337 340 340 339 340 342 342 342 340 340 339 337 336 337 336 335 335 336 338 341 341 340 340 341 341 342 342 343 344 344 344 345 346 347 347 347 347 348 348 348 349 350 350 350 352 353 354 354 352 352 353 353
327 336 337 335 335 332 331 333 334 333 332 333 336 337 336 338 340 340 340 341 340 338 336 335 335 333 332 333 335 337 338 339 338 339 339 340 341 342 342 343 343 343 343 344 344 345 345 345 346 347 347 348 350 350 349 350 351 353 353 352 352 353 353
324 332 337 335 332 330 330 333 333 332 331 332 335 339 338 337 336 338 341 340 339 338 336 334 333 332 331 332 331 331 333 337 338 338 338 339 339 340 341 342 342 342 342 342 342 342 342 343 344 345 345 347 348 348 349 350 350 351 351 351 351 351 351
327 332 332 330 330 328 329 333 334 333 333 333 336 342 342 336 333 336 338 338 338 338 336 334 333 332 331 331 328 326 328 331 335 336 337 338 338 338 339 339 339 340 340 340 341 341 340 341 342 342 344 345 346 346 347 349 350 349 349 350 349 349 350
331 336 332 327 328 330 333 337 336 331 328 328 332 340 344 336 331 334 336 337 337 336 336 335 334 333 335 335 330 325 325 328 331 334 335 336 337 338 337 337 337 337 338 337 338 338 339 339 340 341 342 344 344 345 345 346 347 347 347 348 348 348 349
328 336 336 332 332 335 338 340 334 326 326 328 328 336 343 337 330 333 335 334 335 336 335 335 334 334 340 340 330 324 325 327 329 332 333 334 335 336 335 335 335 335 336 335 335 336 337 337 339 340 341 342 343 343 342 343 344 345 345 346 347 347 347
333 338 338 335 334 333 335 337 332 325 326 327 328 335 342 335 330 334 335 335 335 336 335 335 334 334 337 336 328 324 324 326 327 329 330 331 332 332 332 332 333 333 334 334 334 334 334 335 336 337 338 340 341 341 341 341 342 343 343 344 345 345 345
338 340 337 333 334 335 332 331 329 325 324 326 330 336 337 331 331 335 335 335 335 335 334 335 334 333 333 331 327 324 324 324 326 327 328 329 329 330 330 331 331 331 332 331 332 332 331 331 330 332 335 338 338 339 339 340 340 341 341 341 341 341 341
332 339 340 333 332 332 327 325 326 324 325 329 332 332 330 328 332 335 334 334 334 334 334 334 333 332 330 328 326 325 324 324 325 325 326 327 327 327 328 328 328 328 328 329 329 329 329 327 325 326 330 334 336 337 336 336 336 336 338 339 339 339 340
329 335 337 333 332 330 324 324 326 326 328 331 330 328 330 332 333 334 333 333 333 332 332 332 331 329 327 326 326 325 324 324 324 324 324 324 324 323 323 322 322 323 323 324 326 327 327 325 322 322 323 326 331 334 334 333 333 334 336 337 337 337 337
334 336 337 335 333 330 326 325 328 329 329 328 327 328 332 332 331 331 333 332 331 331 331 331 329 327 326 326 325 324 324 324 323 323 323 322 320 319 317 315 315 315 314 315 317 320 321 320 320 320 320 321 323 325 327 327 328 330 333 335 335 335 335
331 335 337 333 328 326 326 326 327 328 328 328 329 329 329 329 329 331 332 332 331 331 330 330 330 328 327 327 326 325 324 323 323 323 320 318 317 315 314 314 314 313 313 312 311 312 313 313 315 317 318 318 318 319 321 322 321 322 326 330 332 333 333
326 328 328 326 325 326 327 327 327 329 329 328 328 326 325 327 328 329 331 332 332 330 330 330 330 329 328 328 327 326 325 323 323 321 317 315 316 316 316 317 317 316 316 315 313 312 311 311 312 312 313 315 316 316 318 320 319 319 320 323 325 327 328
332 332 326 323 326 327 327 328 328 328 328 327 326 325 325 325 326 329 332 332 332 331 330 330 330 329 329 328 327 327 325 324 322 319 316 316 318 318 317 317 317 317 316 316 315 314 313 313 313 312 312 312 312 313 316 317 317 317 319 320 320 321 323
334 333 327 323 325 326 327 328 327 326 326 326 325 325 326 325 325 330 332 332 332 332 331 331 330 330 329 328 328 327 325 324 322 319 316 316 317 317 317 317 318 318 317 316 315 315 314 314 314 314 314 313 311 311 313 314 314 315 316 318 318 320 321
329 327 325 324 325 327 327 326 325 325 325 325 325 325 326 325 325 329 332 333 333 332 332 332 331 330 329 328 328 328 326 324 323 320 316 315 316 317 318 318 319 319 318 317 317 315 314 313 312 311 311 312 312 312 312 313 314 314 312 313 316 319 322
331 328 327 326 327 329 327 325 325 325 324 324 325 326 326 325 325 327 329 330 331 331 332 333 332 331 331 329 328 328 327 325 324 322 319 317 316 316 317 318 318 319 320 320 319 317 315 314 313 311 309 307 309 311 311 312 313 312 310 311 312 316 320
332 327 325 324 325 327 325 325 325 325 324 325 325 326 326 326 325 325 326 326 328 330 331 331 331 331 331 330 329 329 327 326 325 324 322 321 319 317 317 318 319 321 323 323 322 321 319 317 316 316 313 309 307 308 310 311 311 310 310 310 311 313 316
326 324 324 324 324 324 324 325 326 325 325 325 326 326 326 325 324 325 324 324 327 329 329 329 330 330 330 330 330 329 327 327 326 325 325 325 324 322 321 321 322 323 324 324 324 324 323 321 319 318 317 314 308 306 306 308 309 310 311 313 314 315 315
324 324 324 324 324 324 325 325 324 325 325 325 325 326 326 325 324 324 323 323 325 327 327 328 329 329 329 329 329 328 327 327 327 326 326 325 325 325 324 324 324 323 324 324 325 325 325 324 322 320 319 317 312 307 305 305 306 308 310 313 316 318 318
Wind_Speed
8 10 5 3 7 1 2 1 2 4 3 5 1 3 1 3 2 1 2 3 4 2 2 5 8 8 4 7 11 13 17 20 24 27 29 29 29 27 26 30 38 42 43 45 46 45 44 42 39 38 36 33 31 28 25 25 26 27 27 28 28 29 28
10 14 8 6 9 3 1 1 3 2 4 5 2 2 2 3 1 2 2 3 4 2 0 5 10 11 8 3 5 9 14 19 23 26 29 30 31 31 27 27 34 41 43 45 46 46 45 43 41 39 36 34 31 28 25 24 25 26 26 26 27 28 28
8 13 10 6 10 8 1 2 3 1 2 1 0 1 1 1 1 2 3 2 1 1 1 8 11 10 9 7 1 6 9 15 20 24 28 30 32 34 32 27 28 35 42 44 46 47 45 44 41 38 36 34 32 30 27 25 25 25 25 25 26 27 28
5 7 6 4 8 8 2 2 4 2 2 3 1 2 2 1 2 2 2 2 1 1 4 8 9 9 10 8 5 5 9 16 20 22 27 31 33 36 37 33 26 28 37 43 44 45 45 44 42 39 37 35 33 31 29 27 26 25 25 25 26 27 28
4 3 3 3 4 5 4 5 6 4 3 1 1 2 2 2 2 2 1 1 2 2 4 6 8 9 10 8 5 3 6 14 20 22 26 29 32 35 38 38 30 24 29 38 43 43 44 44 43 40 38 36 34 33 32 30 27 27 27 26 26 27 28
3 3 5 4 4 3 0 2 4 4 4 1 3 1 2 1 2 3 4 2 2 4 5 5 7 7 9 12 9 7 8 2 10 16 23 27 29 32 36 39 36 28 25 30 38 42 42 43 44 43 40 38 36 35 34 32 30 29 29 28 27 27 28
1 6 8 6 6 4 2 2 5 3 2 1 3 3 3 1 1 1 3 2 1 4 6 6 7 8 11 16 16 15 16 12 7 4 9 17 21 22 26 30 33 31 27 27 34 40 42 43 44 43 42 39 38 37 35 34 33 31 30 28 26 27 29
3 6 7 5 6 8 5 4 7 5 5 4 4 5 3 1 2 2 2 2 1 3 6 7 9 11 13 17 19 18 17 16 17 19 13 5 12 16 19 23 25 26 23 20 24 31 37 41 45 45 45 42 39 38 37 36 34 32 30 29 27 27 29
5 6 6 5 7 7 2 4 8 8 9 9 3 1 2 3 2 2 2 2 1 3 5 7 10 12 13 16 18 18 18 17 18 21 20 10 5 6 5 12 19 24 23 17 13 13 16 23 31 35 39 42 41 40 40 39 36 33 31 29 27 27 28
1 1 2 3 3 4 2 4 10 11 12 11 3 1 3 4 3 3 4 2 1 3 6 8 10 11 11 14 16 17 18 17 16 16 16 9 7 5 4 3 6 13 20 24 24 19 13 13 20 24 27 32 36 38 39 37 34 34 33 31 28 27 27
4 5 5 4 1 2 4 7 11 12 12 10 4 3 3 3 1 4 4 1 2 6 9 9 10 10 9 11 14 15 16 15 15 15 13 8 4 8 7 4 4 4 8 16 26 29 25 21 25 29 31 31 34 37 40 37 33 32 33 32 32 29 28
5 7 6 5 4 2 4 7 10 11 12 11 9 5 1 3 3 4 4 3 3 6 8 9 9 8 8 9 11 13 12 12 12 13 12 9 3 4 8 8 9 8 5 6 13 22 26 26 27 31 35 37 37 37 40 41 39 35 32 34 35 32 30
5 3 5 7 8 5 4 7 10 11 11 10 10 6 2 3 6 4 1 3 5 6 8 9 8 7 7 8 10 11 10 9 8 9 8 7 6 3 3 4 6 6 4 4 8 14 20 24 27 31 35 39 40 39 39 39 40 39 36 34 34 31 29
5 3 4 10 12 8 5 8 9 10 8 7 7 6 6 7 8 5 4 5 7 7 7 7 6 7 7 7 10 12 12 11 9 9 7 6 8 8 3 2 4 4 3 3 5 10 16 22 26 29 33 37 41 42 41 38 38 38 36 33 32 31 28
6 5 4 10 13 12 8 7 4 8 7 6 6 4 4 6 6 3 4 5 5 4 6 7 6 6 7 9 12 14 14 12 11 11 9 7 7 8 6 4 3 3 4 5 6 7 13 20 24 27 29 32 35 38 40 38 35 34 35 33 32 30 27
5 4 6 9 10 12 9 6 2 6 6 4 4 4 2 3 2 1 2 4 1 1 5 5 5 6 9 11 11 12 13 12 11 11 10 9 10 10 9 7 4 3 2 3 5 6 9 17 23 26 27 28 29 32 35 35 34 34 36 34 31 28 26
4 4 4 6 6 8 4 3 3 4 4 1 2 5 5 4 3 1 1 1 2 1 5 4 3 6 9 10 10 9 10 11 11 11 10 9 9 10 9 8 7 5 4 3 3 2 4 11 19 24 26 27 27 29 32 34 34 36 37 34 31 30 28
3 5 2 3 4 3 2 3 3 4 3 2 4 3 5 5 3 1 2 1 1 3 4 3 4 5 7 9 9 9 9 10 10 11 11 10 9 9 9 8 8 6 5 4 2 2 2 3 11 16 20 23 23 24 28 31 33 36 36 33 30 30 30
1 2 5 5 2 1 3 2 2 2 3 3 5 3 4 5 5 3 1 1 1 4 5 5 8 9 10 12 12 11 11 10 10 11 11 10 9 10 10 10 9 8 7 6 3 2 3 1 4 10 15 19 21 22 24 25 26 29 31 29 27 27 27
1 3 4 2 2 1 1 1 2 3 3 1 3 4 4 4 3 3 3 3 1 4 6 7 9 11 14 16 15 13 12 11 11 12 11 11 10 10 11 10 9 9 8 8 8 6 5 4 4 5 8 12 15 17 19 19 20 22 24 25 25 26 26
2 2 2 2 2 1 2 3 3 4 4 3 3 1 4 5 3 1 2 4 4 3 4 6 8 7 9 12 12 12 12 11 11 12 11 11 10 10 10 10 10 11 10 10 11 9 9 9 8 7 6 7 9 10 13 15 16 18 19 21 23 24 24
3 4 3 2 1 2 5 6 5 5 4 4 3 3 2 6 5 2 3 5 6 6 5 6 5 2 3 4 5 9 12 11 11 12 11 10 11 11 11 12 12 12 12 12 13 12 12 13 12 10 6 4 6 9 12 13 13 12 13 15 18 19 19
2 4 3 2 3 4 5 6 6 5 5 4 2 3 2 6 6 4 4 6 10 10 8 6 3 1 1 1 3 9 12 10 10 10 10 10 10 10 9 10 10 10 10 11 13 14 14 15 14 11 9 5 5 8 10 10 10 9 9 11 14 15 16
2 4 2 2 3 3 4 6 6 5 4 5 4 3 4 6 6 4 4 6 9 11 9 6 3 3 1 2 8 11 11 11 11 11 10 10 9 8 8 8 8 8 8 9 12 13 14 14 13 11 9 7 6 8 8 7 7 7 7 7 7 8 9
2 4 2 1 3 4 4 4 5 3 4 6 3 2 5 6 6 2 2 3 5 7 8 7 5 3 2 7 14 14 11 11 12 11 11 10 9 8 8 8 8 7 7 8 10 11 12 12 10 9 7 7 8 10 10 10 10 9 8 7 6 5 6
2 2 2 1 3 4 3 2 3 2 5 3 3 4 4 6 6 2 1 2 2 3 5 7 5 3 6 13 17 14 11 11 11 10 10 9 9 8 7 6 6 6 6 7 8 9 10 10 9 7 5 5 8 9 10 12 12 10 7 6 5 5 6
2 2 3 2 2 3 2 1 1 1 3 4 4 7 6 4 4 2 1 1 3 3 3 3 3 8 12 14 14 13 11 9 9 8 7 6 6 6 5 5 4 4 4 5 6 7 7 8 8 7 6 6 6 6 8 11 10 8 6 5 3 4 4
3 2 1 3 3 3 2 3 3 3 5 6 8 8 6 4 2 2 2 1 2 2 1 3 8 13 13 12 11 10 9 7 6 6 5 4 4 3 4 5 5 5 5 5 5 5 5 6 7 7 6 7 7 7 9 9 7 5 5 3 2 2 2
3 3 4 4 2 2 4 7 8 9 10 8 6 6 5 4 2 2 3 2 2 3 4 5 8 10 10 9 8 7 6 5 4 3 4 6 6 6 7 8 8 9 9 8 7 6 6 6 6 6 5 5 5 7 8 7 5 4 3 2 2 1 1
1 2 2 4 6 9 11 13 12 12 11 8 5 4 3 3 2 2 3 3 3 5 5 6 7 7 7 7 6 4 3 3 3 4 6 9 9 8 8 8 8 8 8 8 8 7 7 7 6 6 5 4 4 4 5 5 3 3 3 1 1 1 1
3 1 1 2 6 11 14 15 13 11 10 7 4 2 2 2 3 3 4 4 4 5 4 4 4 5 5 5 4 3 3 3 3 5 6 7 7 6 7 7 7 7 7 7 6 6 6 6 6 6 6 5 4 2 2 2 1 1 1 1 2 2 3
2 3 5 3 6 11 15 15 13 12 10 7 5 3 2 2 3 3 4 4 3 4 4 3 3 4 4 4 2 2 3 3 3 5 5 4 4 5 5 6 6 7 8 8 8 8 7 6 6 6 6 5 3 2 1 1 2 2 2 2 3 3 3
2 0 2 4 4 4 9 13 12 11 9 8 6 5 4 3 3 4 5 3 1 2 3 4 4 3 3 3 2 2 2 2 1 3 5 3 1 2 3 4 5 7 8 9 9 10 10 9 8 8 8 7 6 4 3 3 3 3 3 4 5 5 5
2 3 9 13 7 3 11 16 14 11 10 8 7 6 4 3 3 4 4 4 3 2 3 4 5 4 4 3 2 2 0 2 2 1 4 4 5 5 3 4 5 7 7 8 9 9 10 10 10 10 10 10 9 8 7 6 5 5 5 5 6 7 7
7 11 22 25 14 9 17 20 15 13 12 9 8 8 6 3 3 3 3 3 4 4 4 4 3 4 4 4 4 4 3 1 1 0 1 3 4 6 6 7 7 7 8 8 9 9 9 9 10 11 11 10 10 9 9 8 8 7 6 6 6 8 8
7 15 29 30 16 11 19 21 17 16 14 10 10 9 7 5 4 2 2 2 3 4 4 4 3 2 3 5 6 6 5 4 3 1 1 2 3 5 7 7 7 7 8 9 10 10 10 10 10 10 11 10 10 10 9 9 8 7 6 6 6 7 8
5 13 29 29 15 12 20 21 17 15 14 12 11 10 8 7 4 2 2 1 2 2 2 2 2 2 2 3 5 6 6 6 5 4 4 4 4 5 6 6 6 8 10 12 12 12 12 12 11 10 10 10 9 9 9 9 8 7 6 5 5 6 7
Wind_Direction
1 354 307 102 73 42 274 12 189 213 164 119 60 281 287 79 115 209 225 269 301 296 326 1 9 9 51 147 162 175 189 193 193 199 202 202 199 194 194 198 199 200 200 202 205 205 207 208 209 211 212 213 214 214 215 214 213 215 216 218 218 217 215
339 346 355 72 58 55 126 319 242 244 43 76 112 272 351 40 186 251 286 267 302 347 303 347 9 15 9 30 139 164 182 187 192 198 201 202 201 197 198 201 201 201 201 202 205 207 209 210 211 212 213 215 215 216 217 217 215 215 216 217 219 218 216
319 348 20 36 360 359 100 245 259 106 70 75 63 262 279 306 215 272 309 279 285 48 339 341 353 353 337 325 233 169 178 188 194 197 199 201 201 200 203 205 203 203 203 203 206 208 210 210 212 213 214 215 215 216 219 220 220 219 218 218 219 219 217
325 355 29 26 338 338 358 335 348 33 137 161 194 206 185 206 210 222 299 325 335 329 336 340 338 334 333 321 271 204 190 194 195 196 198 200 201 202 206 209 208 207 207 206 207 209 211 211 212 214 215 216 216 217 218 220 221 221 221 221 220 220 220
13 3 357 14 321 315 343 360 2 348 323 13 177 207 172 164 179 176 172 275 295 317 340 345 343 343 349 343 305 257 221 205 200 199 198 200 203 203 206 211 211 212 213 210 208 210 212 213 212 214 216 217 218 218 218 219 220 221 222 223 222 221 221
34 279 292 318 299 288 296 2 349 316 293 28 107 228 275 195 159 171 166 177 285 340 346 345 357 1 6 12 18 22 11 292 214 210 205 204 207 207 207 212 215 217 218 215 211 209 210 211 212 213 216 218 219 219 220 219 220 221 222 223 223 222 222
250 274 287 306 320 344 59 353 340 316 286 78 134 193 249 263 354 190 134 120 285 342 344 338 360 14 22 26 29 31 27 27 23 326 235 212 208 209 210 214 219 223 224 221 216 212 211 211 211 213 215 217 220 221 221 220 220 222 223 224 226 224 222
327 307 297 309 6 26 31 340 339 338 319 295 210 187 176 130 358 327 94 80 298 340 350 347 5 22 33 33 30 29 24 27 31 22 3 275 208 204 212 217 221 224 222 221 218 214 212 212 212 214 215 217 220 222 221 220 221 222 222 224 226 226 223
355 352 334 335 11 23 18 305 329 332 327 322 293 156 83 78 6 332 116 111 282 328 353 4 15 25 35 36 34 33 29 28 33 33 27 3 260 216 217 227 229 229 228 230 228 221 217 214 211 212 213 216 218 220 221 221 222 223 223 223 225 226 225
37 32 301 299 337 337 308 323 334 337 340 341 339 135 73 59 1 11 82 122 274 352 6 22 27 27 32 36 38 38 36 38 39 41 41 19 302 292 358 353 261 246 242 242 241 240 241 231 221 215 211 212 214 215 214 214 216 217 218 221 224 225 226
175 181 206 216 173 335 332 341 343 346 346 349 19 89 83 93 62 39 46 356 11 24 19 28 31 25 25 31 39 38 32 38 50 52 52 42 299 257 256 258 248 255 261 254 247 243 242 237 228 222 218 216 217 217 215 212 214 214 213 216 219 221 224
211 184 186 185 136 81 353 353 353 352 352 6 36 49 132 158 113 51 11 349 38 37 27 34 31 24 29 29 35 40 33 34 55 66 64 60 63 231 239 242 235 228 234 245 242 241 242 240 235 229 223 219 220 224 223 220 220 219 217 218 218 217 220
264 190 158 150 115 81 29 18 1 348 358 22 40 32 13 102 107 106 71 56 60 39 33 38 28 17 24 25 33 52 60 52 54 62 63 68 79 108 218 245 249 241 237 222 216 224 231 233 232 228 223 220 222 227 228 225 222 219 218 220 220 219 221
319 350 136 138 113 93 68 40 2 328 344 28 41 37 45 75 99 127 132 87 61 41 38 36 19 11 20 37 54 66 74 74 72 68 60 65 73 72 64 321 288 284 316 309 258 238 231 227 225 223 221 220 221 224 227 227 223 219 218 218 219 221 222
325 343 102 130 117 109 103 79 3 307 328 13 19 20 48 68 84 133 134 93 60 46 54 36 10 17 40 54 61 65 66 67 71 73 67 57 58 62 62 42 353 317 319 326 313 277 245 232 226 222 220 219 220 221 223 225 224 222 222 220 217 219 220
308 338 92 119 112 102 93 76 15 319 338 7 2 357 7 41 63 150 102 80 7 33 76 49 8 26 46 46 47 57 65 64 61 67 68 62 59 64 72 78 76 68 25 345 336 308 258 241 235 230 225 222 222 222 222 223 224 223 222 219 216 215 213
290 303 114 137 112 88 64 10 345 307 308 360 34 12 352 354 25 70 93 128 240 100 87 73 25 33 40 38 36 50 68 71 66 66 67 67 71 75 79 86 96 98 81 64 42 2 256 238 237 236 233 229 228 229 228 225 222 219 216 215 215 214 211
271 294 26 84 71 75 252 298 338 309 304 70 87 38 340 349 21 93 155 190 202 95 94 104 85 65 53 52 57 69 82 83 78 77 75 76 81 87 89 88 85 78 67 72 85 61 54 211 214 214 220 225 225 223 218 213 210 208 208 211 216 218 215
260 320 41 59 62 207 224 250 2 316 316 44 76 46 348 356 4 348 356 360 99 113 120 129 111 92 79 76 77 82 89 92 90 87 88 93 93 92 93 94 92 86 72 61 54 26 26 49 178 178 189 204 209 204 197 192 192 197 203 210 215 217 218
37 19 49 99 191 252 247 234 227 231 257 336 54 20 335 334 344 327 308 298 261 126 126 133 123 102 87 83 79 79 87 95 97 94 94 98 98 95 96 99 98 93 81 71 68 63 58 66 95 124 146 171 186 193 194 191 192 197 204 212 214 213 217
112 77 54 84 64 353 254 248 236 205 213 212 149 147 284 281 279 260 247 265 257 201 159 146 143 123 90 78 68 72 87 94 97 100 101 100 100 98 96 92 85 77 72 69 70 64 64 74 78 76 100 141 164 179 186 188 193 198 203 209 213 215 218
102 96 82 72 87 212 224 237 238 217 229 241 161 125 285 279 269 247 205 228 243 234 202 177 173 157 76 68 63 80 92 99 104 107 106 104 103 99 92 85 78 74 67 61 58 55 57 65 68 65 73 116 155 167 174 180 185 189 196 204 213 219 223
82 104 114 164 196 224 230 234 246 248 242 233 135 73 313 257 240 232 208 220 235 231 219 213 200 113 45 245 146 108 102 106 112 112 110 108 105 100 91 80 70 66 62 60 60 57 54 54 55 52 52 66 117 140 155 173 182 187 199 210 217 224 230
108 108 121 195 213 247 233 227 261 280 224 172 103 36 273 227 204 213 212 215 230 234 234 235 194 166 201 174 142 128 117 113 112 110 109 109 104 93 83 73 66 64 65 69 71 70 64 56 49 43 37 43 74 94 109 134 148 153 167 180 192 208 219
96 102 121 241 257 252 229 242 298 330 139 136 120 235 227 189 169 195 247 227 235 240 233 226 212 215 192 140 140 136 126 121 120 115 112 110 104 94 85 79 75 73 72 72 74 77 76 66 55 45 38 51 79 93 102 109 111 114 125 131 134 139 139
86 112 116 341 284 254 222 266 330 68 131 174 226 196 155 151 161 166 296 270 290 282 249 244 244 216 143 141 145 141 132 127 122 116 113 109 105 101 97 89 78 67 64 68 71 76 78 70 61 55 50 69 91 101 100 97 95 96 102 113 127 129 123
112 73 68 69 260 246 208 154 326 172 171 188 165 126 108 132 162 131 104 286 346 345 278 247 164 142 139 142 144 141 138 134 123 117 115 107 106 110 103 88 66 47 48 61 68 71 71 67 61 56 58 76 96 105 98 93 92 94 95 96 105 111 109
122 103 180 203 223 248 218 179 174 156 145 142 136 125 118 134 146 135 164 180 24 28 154 142 138 143 143 142 141 138 138 133 120 114 111 106 119 121 90 68 53 45 45 54 67 71 67 65 63 59 63 78 94 102 100 98 99 105 110 118 117 106 101
160 172 202 200 169 107 127 137 130 125 128 134 136 131 127 129 131 156 164 151 104 117 138 142 151 158 155 147 141 136 138 137 123 101 98 109 115 104 86 75 65 59 54 50 52 56 57 61 63 60 63 71 84 98 102 106 111 106 112 144 167 125 100
131 84 109 145 130 121 125 129 129 129 134 140 138 125 118 109 98 125 153 154 140 139 148 154 160 171 176 171 167 162 156 155 141 119 113 112 106 93 84 76 67 61 55 48 46 47 50 55 55 53 55 50 54 88 105 112 109 90 86 111 219 267 296
103 67 257 185 136 133 134 135 140 141 138 140 140 131 126 113 102 121 143 141 135 142 157 162 157 162 174 180 182 177 169 165 156 145 134 119 102 88 78 68 58 53 48 45 43 39 37 39 37 38 43 39 34 58 101 111 76 25 26 9 315 281 280
114 210 222 192 146 150 149 147 153 155 147 145 148 138 134 130 116 126 134 132 141 158 168 174 171 162 158 157 142 122 131 148 161 161 154 129 91 79 76 64 50 41 36 34 33 29 23 16 12 8 10 10 3 345 321 292 294 311 315 312 302 282 274
75 44 170 139 116 150 166 164 166 167 161 157 154 143 136 133 126 129 135 136 164 193 189 202 208 193 171 163 135 82 80 92 142 187 190 193 347 20 51 46 29 24 23 21 22 23 20 14 6 354 344 337 325 311 306 294 286 297 303 302 296 282 275
160 211 178 166 157 198 194 183 178 176 175 174 171 163 151 134 126 129 139 148 159 176 197 215 224 223 213 207 217 238 286 45 52 195 220 242 279 295 311 341 352 4 14 14 12 14 13 12 8 1 351 342 329 315 305 298 293 292 292 294 294 284 276
211 205 186 178 178 187 185 181 180 180 182 183 179 173 166 156 140 124 135 148 143 146 161 175 198 222 231 232 235 240 250 283 23 90 239 273 291 292 296 311 326 349 11 15 8 5 2 357 356 355 352 350 344 332 317 308 304 298 288 283 287 287 284
204 201 190 186 190 187 179 178 179 180 183 189 184 175 173 177 168 139 131 130 115 129 144 143 149 191 234 241 238 234 236 250 263 257 264 302 314 302 299 307 322 343 359 358 353 352 350 345 343 343 342 345 348 344 335 325 318 309 296 280 278 288 291
223 211 194 189 195 191 179 176 176 177 185 193 188 179 180 189 193 192 194 168 109 123 128 132 163 191 218 231 235 235 238 251 265 265 264 271 282 289 295 307 323 334 340 338 334 335 337 335 333 332 333 338 345 346 343 337 328 320 314 298 287 298 304